Regional Weather Roundup
Issued by NWS Upton, NY

Current Version | Previous Version | Text Only | Print | Product List | Glossary Off
Versions: 1 2 3 4 5 6 7 8 9 10 11 12 13 14 15 16 17 18 19 20 21 22 23 24 25 26 27 28 29 30 31 32 33 34 35 36 37 38 39 40 41 42 43 44 45 46 47 48 49 50
000 ASUS41 KOKX 171405 RWROKX REGIONAL WEATHER ROUNDUP NATIONAL WEATHER SERVICE NEW YORK NY 1000 AM EDT WED SEP 17 2014 NOTE: "FAIR" INDICATES FEW OR NO CLOUDS BELOW 12,000 FEET WITH NO SIGNIFICANT WEATHER AND/OR OBSTRUCTIONS TO VISIBILITY. NYZ071-072-176-178-NJZ106-104-171500- NEW YORK CITY METRO AREA CITY SKY/WX TMP DP RH WIND PRES REMARKS CENTRAL PARK SUNNY 63 44 50 E5 30.10R LAGUARDIA APRT MOSUNNY 64 47 53 NE6 30.06R KENNEDY INTL MOSUNNY 66 46 48 N6 30.07R NEWARK/LIBERTY MOSUNNY 65 46 50 NE5 30.07R BRNX BOT. GARD N/A 66 43 42 NW3 30.07R TETERBORO SUNNY 65 44 46 VRB5 30.06S $$ NYZ177-179-078>081-171500- LONG ISLAND NEW YORK CITY SKY/WX TMP DP RH WIND PRES REMARKS FARMINGDALE SUNNY 65 49 56 N8 30.06S ISLIP MOSUNNY 65 46 50 N9 30.04S SHIRLEY SUNNY 66 49 54 N8 30.06R WESTHAMPTON SUNNY 65 49 56 N9 30.06S MONTAUK POINT N/A 63 50 62 N8 30.05R $$ NYZ052-065-067-171500- HUDSON VALLEY CITY SKY/WX TMP DP RH WIND PRES REMARKS WHITE PLAINS SUNNY 63 44 50 N6 30.06S NEWBURGH SUNNY 57 50 77 CALM 30.09R MONTGOMERY SUNNY 57 49 74 S5 30.07S POUGHKEEPSIE MOSUNNY 56 51 84 VRB3 30.07S ALBANY MOSUNNY 57 47 69 VRB3 30.06F $$ NJZ001-105-106-008-010-013-015-019>022-104-171500- NEW JERSEY CITY SKY/WX TMP DP RH WIND PRES REMARKS NEWARK/LIBERTY MOSUNNY 65 46 50 NE5 30.07R TETERBORO SUNNY 65 44 46 VRB5 30.06S CALDWELL SUNNY 62 47 57 CALM 30.08R MORRISTOWN MOSUNNY 63 54 72 CALM 30.08S SOMERVILLE PTSUNNY 64 49 57 VRB3 30.06R LINDEN FAIR 70 46 42 NE3 30.09S SUSSEX SUNNY 55 52 89 CALM 30.08S ANDOVER N/A 59 49 69 CALM 30.09R TRENTON SUNNY 65 46 50 VRB3 30.07R MILLVILLE SUNNY 68 50 52 E8 30.06S ATLANTIC CITY SUNNY 68 54 60 NE6 30.06S WRIGHTSTOWN SUNNY 65 51 62 NE6 30.05S TOMS RIVER SUNNY 64 54 68 NE3 30.07S BELMAR SUNNY 64 48 55 NE7 30.07R $$ PAZ047>061-062-071-171500- EASTERN PENNSYLVANIA CITY SKY/WX TMP DP RH WIND PRES REMARKS PHILADELPHIA MOSUNNY 67 50 54 E7 30.07S ALLENTOWN SUNNY 61 50 67 CALM 30.08S SCRANTON SUNNY 52 46 80 SW3 30.09R $$ CTZ002-004>006-009-010-012-RIZ004-006-007-MAZ004-011-015-171500- SOUTHERN NEW ENGLAND IN CT CITY SKY/WX TMP DP RH WIND PRES REMARKS BRADLEY INTL MOSUNNY 62 48 60 VRB3 30.04S HARTFORD SUNNY 59 50 72 SE8 30.05F DANBURY SUNNY 60 50 69 CALM 30.08R WTRBRY/OXFORD SUNNY 59 46 63 MISG 30.06F BRIDGEPORT SUNNY 65 47 52 N8 30.06S MERIDEN N/A 62 48 60 VRB3 30.06S NEW HAVEN MOSUNNY 64 48 56 N8 30.06R CHESTER FAIR 63 46 55 N7 30.06S GROTON SUNNY 64 49 57 N8 30.03S WILLIMANTIC SUNNY 60 51 72 CALM 30.04F IN RI CITY SKY/WX TMP DP RH WIND PRES REMARKS PROVIDENCE MOSUNNY 65 47 52 N7 30.03F BLOCK ISLAND SUNNY 63 50 63 N6 30.03S WESTERLY SUNNY 64 48 56 N6 30.04S IN MA CITY SKY/WX TMP DP RH WIND PRES REMARKS BOSTON MOSUNNY 64 48 56 CALM 30.01F WORCESTER SUNNY 58 45 62 NW12 30.03S WESTFIELD SUNNY 61 47 59 CALM 30.04F PROVINCETOWN SUNNY 63 55 77 NW7 30.02S NANTUCKET SUNNY 67 57 70 S7 30.01R $$ ANZ330-335-338-340-345-350-353-355-171500- COASTAL MARINE OBSERVATIONS STATION/POSITION TIME SKY/WX TEMP WIND PRES VSBY WAVE AIR SEA DIR/SP/G HT/PER (UTC) (F) (DEG/KT/KT) (MB) (MI) (FT/S) NY HARB ENTRANCE NOT AVBL 4S FIRE IS NOT AVBL 23SW MTP 1400 N/A 3/14 HUDSON CANYON 1400 67 73 20/ 12/ 16 1016.9 4/13 EXECUTION ROCKS 1400 65 71 100/ 2/ 4 N/A WESTERN LI SOUND 1400 62 330/ 2/ 4 N/A 1 CENTRAL LI SOUND 1300 61 71 330/ 8/ 12 N/A 1/ 2 EASTERN LI SOUND 1300 65 68 350/ 12/ 14 N/A ROBBINS REEF 1400 62 10/ 6/ 7 1017.0 $$ >>>>>>>>>>>>>>>>>>>>>>>>>>>> KEY <<<<<<<<<<<<<<<<<<<<<<<<<<< > < > SKY/WX - SKY CONDITION/PRESENT WEATHER < > TMP - TEMPERATURE IN FAHRENHEIT < > DP - DEWPOINT IN FAHRENHEIT < > RH - RELATIVE HUMIDITY IN PERCENT < > WIND - DIRECTION AND SPEED IN MPH < > PRES - MEAN SEA LEVEL PRESSURE IN INCHES OF HG < > WCI - WIND CHILL INDEX < > VSB - VISIBILITY IN MILES < > HX - HEAT INDEX < > TC - TEMPERATURE IN CELSIUS < > VRB - VARIABLE WIND DIRECTION < > < >>>>>>>>>>>>>>>>>>>>>>>>>>>> KEY <<<<<<<<<<<<<<<<<<<<<<<<<<<

USA.gov is the U.S. government's official web portal to all federal, state and local government web resources and services.